sat.trackr.live / text

‹ back to catalog

STARLINK-5463

NORAD 55673 · 2023-021AX

PAYLOAD ACTIVE UNKNOWN

§ Identity

Operator
Country
US
Launch date
2023-02-17
Launch site
AFWTR
Launch vehicle
Mass (kg)
RCS (m²)

Purposes: comms

External: N2YO · Heavens-Above · Gunter

§ Orbital elements

Epoch: 2026-09-20T22:00:03.000096Z

Period
95.90 min
Inclination
69.9999°
Eccentricity
0.0004094
Mean motion
15.01573238 rev/d
Perigee alt
559.2 km
Apogee alt
564.9 km
Semi-major
6,940.2 km
B*
1.3961e-3
RAAN
32.1167°
Arg perigee
267.6223°
Mean anomaly
331.1141°
Rev number
576

§ Raw data

STARLINK-54631 55673U 23021AX  26263.91670139  .00018079  00000+0  13961-2 0  99952 55673  69.9999  32.1167 0004094 267.6223 331.1141 15.01573238  5761

JSON: /api/v1/satellites/55673 · /tle

For live sub-satellite position, see the globe view (requires WebGL).

§ Visibility from observer

Set your observer location to see the next 7 days of passes ≥ 10°. The values pass through the URL so the page stays shareable.

No JS? Fill the form by hand. The geolocation button needs JavaScript.